USA 153

Last updated on Mon Oct 20 2025 00:02:45 GMT+0000 (Coordinated Universal Time)

1 26575U 00065A 25292.16899834 -.00000323 00000+0 00000+0 0 9991 2 26575 11.2082 37.3514 0001489 180.9953 4.9037 1.00274746 30514
UTC large
Height (km)
Speed (km/s)
/
Latitude / Longitude
Inclination (degrees)
Orbital Period (minutes)
Azimuth
Elevation
Range (km)
Doppler Factor

Next 0 passes for location: London (51.5072 / 0.1276)

Sorry there are no passes over London.